Year,Month,Day,Hour,Minute,Value (Times are PST for barometer in hPa)
2009,09,19,00,00,1007.43
2009,09,19,00,01,1007.42
2009,09,19,00,02,1007.42
2009,09,19,00,03,1007.42
2009,09,19,00,04,1007.42
2009,09,19,00,05,1007.42
2009,09,19,00,06,1007.42
2009,09,19,00,07,1007.42
2009,09,19,00,08,1007.42
2009,09,19,00,09,1007.42
2009,09,19,00,10,1007.42
2009,09,19,00,11,1007.42
2009,09,19,00,12,1007.42
2009,09,19,00,13,1007.42
2009,09,19,00,14,1007.42
2009,09,19,00,15,1007.52
2009,09,19,00,16,1007.52
2009,09,19,00,17,1007.52
2009,09,19,00,18,1007.52
2009,09,19,00,19,1007.52
2009,09,19,00,20,1007.52
2009,09,19,00,21,1007.52
2009,09,19,00,22,1007.52
2009,09,19,00,23,1007.52
2009,09,19,00,24,1007.52
2009,09,19,00,25,1007.52
2009,09,19,00,26,1007.52
2009,09,19,00,27,1007.52
2009,09,19,00,28,1007.52
2009,09,19,00,29,1007.52
2009,09,19,00,30,1007.55
2009,09,19,00,31,1007.55
2009,09,19,00,32,1007.55
2009,09,19,00,33,1007.55
2009,09,19,00,34,1007.55
2009,09,19,00,35,1007.55
2009,09,19,00,36,1007.55
2009,09,19,00,37,1007.55
2009,09,19,00,38,1007.55
2009,09,19,00,39,1007.55
2009,09,19,00,40,1007.55
2009,09,19,00,41,1007.55
2009,09,19,00,42,1007.55
2009,09,19,00,43,1007.55
2009,09,19,00,44,1007.55
2009,09,19,00,45,1007.28
2009,09,19,00,46,1007.28
2009,09,19,00,47,1007.28
2009,09,19,00,48,1007.28
2009,09,19,00,49,1007.28
2009,09,19,00,50,1007.28
2009,09,19,00,51,1007.28
2009,09,19,00,52,1007.28
2009,09,19,00,53,1007.28
2009,09,19,00,54,1007.28
2009,09,19,00,55,1007.28
2009,09,19,00,56,1007.28
2009,09,19,00,57,1007.28
2009,09,19,00,58,1007.28
2009,09,19,00,59,1007.28
2009,09,19,01,00,1007.99
2009,09,19,01,01,1007.99
2009,09,19,01,02,1007.99
2009,09,19,01,03,1007.99
2009,09,19,01,04,1007.99
2009,09,19,01,05,1007.99
2009,09,19,01,06,1007.99
2009,09,19,01,07,1007.99
2009,09,19,01,08,1007.99
2009,09,19,01,09,1007.99
2009,09,19,01,10,1007.99
2009,09,19,01,11,1007.99
2009,09,19,01,12,1007.99
2009,09,19,01,13,1007.99
2009,09,19,01,14,1007.99
2009,09,19,01,15,1008.06
2009,09,19,01,16,1008.06
2009,09,19,01,17,1008.06
2009,09,19,01,18,1008.06
2009,09,19,01,19,1008.06
2009,09,19,01,20,1008.06
2009,09,19,01,21,1008.06
2009,09,19,01,22,1008.06
2009,09,19,01,23,1008.06
2009,09,19,01,24,1008.06
2009,09,19,01,25,1008.06
2009,09,19,01,26,1008.06
2009,09,19,01,27,1008.06
2009,09,19,01,28,1008.06
2009,09,19,01,29,1008.06
2009,09,19,01,30,1008.43
2009,09,19,01,31,1008.43
2009,09,19,01,32,1008.43
2009,09,19,01,33,1008.43
2009,09,19,01,34,1008.43
2009,09,19,01,35,1008.43
2009,09,19,01,36,1008.43
2009,09,19,01,37,1008.43
2009,09,19,01,38,1008.43
2009,09,19,01,39,1008.43
2009,09,19,01,40,1008.43
2009,09,19,01,41,1008.43
2009,09,19,01,42,1008.43
2009,09,19,01,43,1008.43
2009,09,19,01,44,1008.43
2009,09,19,01,45,1008.09
2009,09,19,01,46,1008.09
2009,09,19,01,47,1008.09
2009,09,19,01,48,1008.09
2009,09,19,01,49,1008.09
2009,09,19,01,50,1008.09
2009,09,19,01,51,1008.09
2009,09,19,01,52,1008.09
2009,09,19,01,53,1008.09
2009,09,19,01,54,1008.09
2009,09,19,01,55,1008.09
2009,09,19,01,56,1008.09
2009,09,19,01,57,1008.09
2009,09,19,01,58,1008.09
2009,09,19,01,59,1008.09
2009,09,19,02,00,1008.26
2009,09,19,02,01,1008.26
2009,09,19,02,02,1008.26
2009,09,19,02,03,1008.26
2009,09,19,02,04,1008.26
2009,09,19,02,05,1008.26
2009,09,19,02,06,1008.26
2009,09,19,02,07,1008.26
2009,09,19,02,08,1008.26
2009,09,19,02,09,1008.26
2009,09,19,02,10,1008.26
2009,09,19,02,11,1008.26
2009,09,19,02,12,1008.26
2009,09,19,02,13,1008.26
2009,09,19,02,14,1008.26
2009,09,19,02,15,1008.06
2009,09,19,02,16,1008.06
2009,09,19,02,17,1008.06
2009,09,19,02,18,1008.06
2009,09,19,02,19,1008.06
2009,09,19,02,20,1008.06
2009,09,19,02,21,1008.06
2009,09,19,02,22,1008.06
2009,09,19,02,23,1008.06
2009,09,19,02,24,1008.06
2009,09,19,02,25,1008.06
2009,09,19,02,26,1008.06
2009,09,19,02,27,1008.06
2009,09,19,02,28,1008.06
2009,09,19,02,29,1008.06
2009,09,19,02,30,1008.13
2009,09,19,02,31,1008.13
2009,09,19,02,32,1008.13
2009,09,19,02,33,1008.13
2009,09,19,02,34,1008.13
2009,09,19,02,35,1008.13
2009,09,19,02,36,1008.13
2009,09,19,02,37,1008.13
2009,09,19,02,38,1008.13
2009,09,19,02,39,1008.13
2009,09,19,02,40,1008.13
2009,09,19,02,41,1008.13
2009,09,19,02,42,1008.13
2009,09,19,02,43,1008.13
2009,09,19,02,44,1008.13
2009,09,19,02,45,1008.23
2009,09,19,02,46,1008.23
2009,09,19,02,47,1008.23
2009,09,19,02,48,1008.23
2009,09,19,02,49,1008.23
2009,09,19,02,50,1008.23
2009,09,19,02,51,1008.23
2009,09,19,02,52,1008.23
2009,09,19,02,53,1008.23
2009,09,19,02,54,1008.23
2009,09,19,02,55,1008.23
2009,09,19,02,56,1008.23
2009,09,19,02,57,1008.23
2009,09,19,02,58,1008.23
2009,09,19,02,59,1008.23
2009,09,19,03,00,1008.03
2009,09,19,03,01,1008.03
2009,09,19,03,02,1008.03
2009,09,19,03,03,1008.03
2009,09,19,03,04,1008.03
2009,09,19,03,05,1008.03
2009,09,19,03,06,1008.03
2009,09,19,03,07,1008.03
2009,09,19,03,08,1008.03
2009,09,19,03,09,1008.03
2009,09,19,03,10,1008.03
2009,09,19,03,11,1008.03
2009,09,19,03,12,1008.03
2009,09,19,03,13,1008.03
2009,09,19,03,14,1008.03
2009,09,19,03,15,1008.48
2009,09,19,03,16,1008.50
2009,09,19,03,17,1008.50
2009,09,19,03,18,1008.50
2009,09,19,03,19,1008.50
2009,09,19,03,20,1008.50
2009,09,19,03,21,1008.50
2009,09,19,03,22,1008.50
2009,09,19,03,23,1008.50
2009,09,19,03,24,1008.50
2009,09,19,03,25,1008.50
2009,09,19,03,26,1008.50
2009,09,19,03,27,1008.50
2009,09,19,03,28,1008.50
2009,09,19,03,29,1008.50
2009,09,19,03,30,1008.53
2009,09,19,03,31,1008.53
2009,09,19,03,32,1008.53
2009,09,19,03,33,1008.53
2009,09,19,03,34,1008.53
2009,09,19,03,35,1008.53
2009,09,19,03,36,1008.53
2009,09,19,03,37,1008.53
2009,09,19,03,38,1008.53
2009,09,19,03,39,1008.53
2009,09,19,03,40,1008.53
2009,09,19,03,41,1008.53
2009,09,19,03,42,1008.53
2009,09,19,03,43,1008.53
2009,09,19,03,44,1008.53
2009,09,19,03,45,1008.57
2009,09,19,03,46,1008.57
2009,09,19,03,47,1008.57
2009,09,19,03,48,1008.57
2009,09,19,03,49,1008.57
2009,09,19,03,50,1008.57
2009,09,19,03,51,1008.57
2009,09,19,03,52,1008.57
2009,09,19,03,53,1008.57
2009,09,19,03,54,1008.57
2009,09,19,03,55,1008.57
2009,09,19,03,56,1008.57
2009,09,19,03,57,1008.57
2009,09,19,03,58,1008.57
2009,09,19,03,59,1008.57
2009,09,19,04,00,1008.53
2009,09,19,04,01,1008.53
2009,09,19,04,02,1008.53
2009,09,19,04,03,1008.53
2009,09,19,04,04,1008.53
2009,09,19,04,05,1008.53
2009,09,19,04,06,1008.53
2009,09,19,04,07,1008.53
2009,09,19,04,08,1008.53
2009,09,19,04,09,1008.53
2009,09,19,04,10,1008.53
2009,09,19,04,11,1008.53
2009,09,19,04,12,1008.53
2009,09,19,04,13,1008.53
2009,09,19,04,14,1008.53
2009,09,19,04,15,1008.53
2009,09,19,04,16,1008.53
2009,09,19,04,17,1008.53
2009,09,19,04,18,1008.53
2009,09,19,04,19,1008.53
2009,09,19,04,20,1008.53
2009,09,19,04,21,1008.53
2009,09,19,04,22,1008.53
2009,09,19,04,23,1008.53
2009,09,19,04,24,1008.53
2009,09,19,04,25,1008.53
2009,09,19,04,26,1008.53
2009,09,19,04,27,1008.53
2009,09,19,04,28,1008.53
2009,09,19,04,29,1008.53
2009,09,19,04,30,1008.53
2009,09,19,04,31,1008.53
2009,09,19,04,32,1008.53
2009,09,19,04,33,1008.53
2009,09,19,04,34,1008.53
2009,09,19,04,35,1008.53
2009,09,19,04,36,1008.53
2009,09,19,04,37,1008.53
2009,09,19,04,38,1008.53
2009,09,19,04,39,1008.53
2009,09,19,04,40,1008.53
2009,09,19,04,41,1008.53
2009,09,19,04,42,1008.53
2009,09,19,04,43,1008.53
2009,09,19,04,44,1008.53
2009,09,19,04,45,1008.57
2009,09,19,04,46,1008.57
2009,09,19,04,47,1008.57
2009,09,19,04,48,1008.57
2009,09,19,04,49,1008.57
2009,09,19,04,50,1008.57
2009,09,19,04,51,1008.57
2009,09,19,04,52,1008.57
2009,09,19,04,53,1008.57
2009,09,19,04,54,1008.57
2009,09,19,04,55,1008.57
2009,09,19,04,56,1008.57
2009,09,19,04,57,1008.57
2009,09,19,04,58,1008.57
2009,09,19,04,59,1008.57
2009,09,19,05,00,1008.67
2009,09,19,05,01,1008.67
2009,09,19,05,02,1008.67
2009,09,19,05,03,1008.67
2009,09,19,05,04,1008.67
2009,09,19,05,05,1008.67
2009,09,19,05,06,1008.67
2009,09,19,05,07,1008.67
2009,09,19,05,08,1008.67
2009,09,19,05,09,1008.67
2009,09,19,05,10,1008.67
2009,09,19,05,11,1008.67
2009,09,19,05,12,1008.67
2009,09,19,05,13,1008.67
2009,09,19,05,14,1008.67
2009,09,19,05,15,1009.01
2009,09,19,05,16,1009.01
2009,09,19,05,17,1009.01
2009,09,19,05,18,1009.01
2009,09,19,05,19,1009.01
2009,09,19,05,20,1009.01
2009,09,19,05,21,1009.01
2009,09,19,05,22,1009.01
2009,09,19,05,23,1009.01
2009,09,19,05,24,1009.01
2009,09,19,05,25,1009.01
2009,09,19,05,26,1009.01
2009,09,19,05,27,1009.01
2009,09,19,05,28,1009.01
2009,09,19,05,29,1009.01
2009,09,19,05,30,1009.04
2009,09,19,05,31,1009.04
2009,09,19,05,32,1009.04
2009,09,19,05,33,1009.04
2009,09,19,05,34,1009.04
2009,09,19,05,35,1009.04
2009,09,19,05,36,1009.04
2009,09,19,05,37,1009.04
2009,09,19,05,38,1009.04
2009,09,19,05,39,1009.04
2009,09,19,05,40,1009.04
2009,09,19,05,41,1009.04
2009,09,19,05,42,1009.04
2009,09,19,05,43,1009.04
2009,09,19,05,44,1009.04
2009,09,19,05,45,1009.11
2009,09,19,05,46,1009.11
2009,09,19,05,47,1009.11
2009,09,19,05,48,1009.11
2009,09,19,05,49,1009.11
2009,09,19,05,50,1009.11
2009,09,19,05,51,1009.11
2009,09,19,05,52,1009.11
2009,09,19,05,53,1009.11
2009,09,19,05,54,1009.11
2009,09,19,05,55,1009.11
2009,09,19,05,56,1009.11
2009,09,19,05,57,1009.11
2009,09,19,05,58,1009.11
2009,09,19,05,59,1009.11
2009,09,19,06,00,1009.38
2009,09,19,06,01,1009.38
2009,09,19,06,02,1009.38
2009,09,19,06,03,1009.38
2009,09,19,06,04,1009.38
2009,09,19,06,05,1009.38
2009,09,19,06,06,1009.38
2009,09,19,06,07,1009.38
2009,09,19,06,08,1009.38
2009,09,19,06,09,1009.38
2009,09,19,06,10,1009.38
2009,09,19,06,11,1009.38
2009,09,19,06,12,1009.38
2009,09,19,06,13,1009.38
2009,09,19,06,14,1009.38
2009,09,19,06,15,1009.54
2009,09,19,06,16,1009.55
2009,09,19,06,17,1009.55
2009,09,19,06,18,1009.55
2009,09,19,06,19,1009.55
2009,09,19,06,20,1009.55
2009,09,19,06,21,1009.55
2009,09,19,06,22,1009.55
2009,09,19,06,23,1009.55
2009,09,19,06,24,1009.55
2009,09,19,06,25,1009.55
2009,09,19,06,26,1009.55
2009,09,19,06,27,1009.55
2009,09,19,06,28,1009.55
2009,09,19,06,29,1009.55
2009,09,19,06,30,1009.68
2009,09,19,06,31,1009.69
2009,09,19,06,32,1009.69
2009,09,19,06,33,1009.69
2009,09,19,06,34,1009.69
2009,09,19,06,35,1009.69
2009,09,19,06,36,1009.69
2009,09,19,06,37,1009.69
2009,09,19,06,38,1009.69
2009,09,19,06,39,1009.69
2009,09,19,06,40,1009.69
2009,09,19,06,41,1009.69
2009,09,19,06,42,1009.69
2009,09,19,06,43,1009.69
2009,09,19,06,44,1009.69
2009,09,19,06,45,1010.11
2009,09,19,06,46,1010.13
2009,09,19,06,47,1010.13
2009,09,19,06,48,1010.13
2009,09,19,06,49,1010.13
2009,09,19,06,50,1010.13
2009,09,19,06,51,1010.13
2009,09,19,06,52,1010.13
2009,09,19,06,53,1010.13
2009,09,19,06,54,1010.13
2009,09,19,06,55,1010.13
2009,09,19,06,56,1010.13
2009,09,19,06,57,1010.13
2009,09,19,06,58,1010.13
2009,09,19,06,59,1010.13
2009,09,19,07,00,1010.09
2009,09,19,07,01,1010.09
2009,09,19,07,02,1010.09
2009,09,19,07,03,1010.09
2009,09,19,07,04,1010.09
2009,09,19,07,05,1010.09
2009,09,19,07,06,1010.09
2009,09,19,07,07,1010.09
2009,09,19,07,08,1010.09
2009,09,19,07,09,1010.09
2009,09,19,07,10,1010.09
2009,09,19,07,11,1010.09
2009,09,19,07,12,1010.09
2009,09,19,07,13,1010.09
2009,09,19,07,14,1010.09
2009,09,19,07,15,1010.26
2009,09,19,07,16,1010.26
2009,09,19,07,17,1010.26
2009,09,19,07,18,1010.26
2009,09,19,07,19,1010.26
2009,09,19,07,20,1010.26
2009,09,19,07,21,1010.26
2009,09,19,07,22,1010.26
2009,09,19,07,23,1010.26
2009,09,19,07,24,1010.26
2009,09,19,07,25,1010.26
2009,09,19,07,26,1010.26
2009,09,19,07,27,1010.26
2009,09,19,07,28,1010.26
2009,09,19,07,29,1010.26
2009,09,19,07,30,1010.57
2009,09,19,07,31,1010.57
2009,09,19,07,32,1010.57
2009,09,19,07,33,1010.57
2009,09,19,07,34,1010.57
2009,09,19,07,35,1010.57
2009,09,19,07,36,1010.57
2009,09,19,07,37,1010.57
2009,09,19,07,38,1010.57
2009,09,19,07,39,1010.57
2009,09,19,07,40,1010.57
2009,09,19,07,41,1010.57
2009,09,19,07,42,1010.57
2009,09,19,07,43,1010.57
2009,09,19,07,44,1010.57
2009,09,19,07,45,1010.74
2009,09,19,07,46,1010.74
2009,09,19,07,47,1010.74
2009,09,19,07,48,1010.74
2009,09,19,07,49,1010.74
2009,09,19,07,50,1010.74
2009,09,19,07,51,1010.74
2009,09,19,07,52,1010.74
2009,09,19,07,53,1010.74
2009,09,19,07,54,1010.74
2009,09,19,07,55,1010.74
2009,09,19,07,56,1010.74
2009,09,19,07,57,1010.74
2009,09,19,07,58,1010.74
2009,09,19,07,59,1010.74
2009,09,19,08,00,1010.93
2009,09,19,08,01,1010.94
2009,09,19,08,02,1010.94
2009,09,19,08,03,1010.94
2009,09,19,08,04,1010.94
2009,09,19,08,05,1010.94
2009,09,19,08,06,1010.94
2009,09,19,08,07,1010.94
2009,09,19,08,08,1010.94
2009,09,19,08,09,1010.94
2009,09,19,08,10,1010.94
2009,09,19,08,11,1010.94
2009,09,19,08,12,1010.94
2009,09,19,08,13,1010.94
2009,09,19,08,14,1010.94
2009,09,19,08,15,1011.18
2009,09,19,08,16,1011.18
2009,09,19,08,17,1011.18
2009,09,19,08,18,1011.18
2009,09,19,08,19,1011.18
2009,09,19,08,20,1011.18
2009,09,19,08,21,1011.18
2009,09,19,08,22,1011.18
2009,09,19,08,23,1011.18
2009,09,19,08,24,1011.18
2009,09,19,08,25,1011.18
2009,09,19,08,26,1011.18
2009,09,19,08,27,1011.18
2009,09,19,08,28,1011.18
2009,09,19,08,29,1011.18
2009,09,19,08,30,1011.38
2009,09,19,08,31,1011.38
2009,09,19,08,32,1011.38
2009,09,19,08,33,1011.38
2009,09,19,08,34,1011.38
2009,09,19,08,35,1011.38
2009,09,19,08,36,1011.38
2009,09,19,08,37,1011.38
2009,09,19,08,38,1011.38
2009,09,19,08,39,1011.38
2009,09,19,08,40,1011.38
2009,09,19,08,41,1011.38
2009,09,19,08,42,1011.38
2009,09,19,08,43,1011.38
2009,09,19,08,44,1011.38
2009,09,19,08,45,1011.50
2009,09,19,08,46,1011.51
2009,09,19,08,47,1011.51
2009,09,19,08,48,1011.51
2009,09,19,08,49,1011.51
2009,09,19,08,50,1011.51
2009,09,19,08,51,1011.51
2009,09,19,08,52,1011.51
2009,09,19,08,53,1011.51
2009,09,19,08,54,1011.51
2009,09,19,08,55,1011.51
2009,09,19,08,56,1011.51
2009,09,19,08,57,1011.51
2009,09,19,08,58,1011.51
2009,09,19,08,59,1011.51
2009,09,19,09,00,1011.64
2009,09,19,09,01,1011.65
2009,09,19,09,02,1011.65
2009,09,19,09,03,1011.65
2009,09,19,09,04,1011.65
2009,09,19,09,05,1011.65
2009,09,19,09,06,1011.65
2009,09,19,09,07,1011.65
2009,09,19,09,08,1011.65
2009,09,19,09,09,1011.65
2009,09,19,09,10,1011.65
2009,09,19,09,11,1011.65
2009,09,19,09,12,1011.65
2009,09,19,09,13,1011.65
2009,09,19,09,14,1011.65
2009,09,19,09,15,1011.65
2009,09,19,09,16,1011.65
2009,09,19,09,17,1011.65
2009,09,19,09,18,1011.65
2009,09,19,09,19,1011.65
2009,09,19,09,20,1011.65
2009,09,19,09,21,1011.65
2009,09,19,09,22,1011.65
2009,09,19,09,23,1011.65
2009,09,19,09,24,1011.65
2009,09,19,09,25,1011.65
2009,09,19,09,26,1011.65
2009,09,19,09,27,1011.65
2009,09,19,09,28,1011.65
2009,09,19,09,29,1011.65
2009,09,19,09,30,1011.68
2009,09,19,09,31,1011.68
2009,09,19,09,32,1011.68
2009,09,19,09,33,1011.68
2009,09,19,09,34,1011.68
2009,09,19,09,35,1011.68
2009,09,19,09,36,1011.68
2009,09,19,09,37,1011.68
2009,09,19,09,38,1011.68
2009,09,19,09,39,1011.68
2009,09,19,09,40,1011.68
2009,09,19,09,41,1011.68
2009,09,19,09,42,1011.68
2009,09,19,09,43,1011.68
2009,09,19,09,44,1011.68
2009,09,19,09,45,1011.82
2009,09,19,09,46,1011.82
2009,09,19,09,47,1011.82
2009,09,19,09,48,1011.82
2009,09,19,09,49,1011.82
2009,09,19,09,50,1011.82
2009,09,19,09,51,1011.82
2009,09,19,09,52,1011.82
2009,09,19,09,53,1011.82
2009,09,19,09,54,1011.82
2009,09,19,09,55,1011.82
2009,09,19,09,56,1011.82
2009,09,19,09,57,1011.82
2009,09,19,09,58,1011.82
2009,09,19,09,59,1011.82
2009,09,19,10,00,1012.09
2009,09,19,10,01,1012.09
2009,09,19,10,02,1012.09
2009,09,19,10,03,1012.09
2009,09,19,10,04,1012.09
2009,09,19,10,05,1012.09
2009,09,19,10,06,1012.09
2009,09,19,10,07,1012.09
2009,09,19,10,08,1012.09
2009,09,19,10,09,1012.09
2009,09,19,10,10,1012.09
2009,09,19,10,11,1012.09
2009,09,19,10,12,1012.09
2009,09,19,10,13,1012.09
2009,09,19,10,14,1012.09
2009,09,19,10,15,1012.19
2009,09,19,10,16,1012.19
2009,09,19,10,17,1012.19
2009,09,19,10,18,1012.19
2009,09,19,10,19,1012.19
2009,09,19,10,20,1012.19
2009,09,19,10,21,1012.19
2009,09,19,10,22,1012.19
2009,09,19,10,23,1012.19
2009,09,19,10,24,1012.19
2009,09,19,10,25,1012.19
2009,09,19,10,26,1012.19
2009,09,19,10,27,1012.19
2009,09,19,10,28,1012.19
2009,09,19,10,29,1012.19
2009,09,19,10,30,1012.42
2009,09,19,10,31,1012.43
2009,09,19,10,32,1012.43
2009,09,19,10,33,1012.43
2009,09,19,10,34,1012.43
2009,09,19,10,35,1012.43
2009,09,19,10,36,1012.43
2009,09,19,10,37,1012.43
2009,09,19,10,38,1012.43
2009,09,19,10,39,1012.43
2009,09,19,10,40,1012.43
2009,09,19,10,41,1012.43
2009,09,19,10,42,1012.43
2009,09,19,10,43,1012.43
2009,09,19,10,44,1012.43
2009,09,19,10,45,1012.72
2009,09,19,10,46,1012.73
2009,09,19,10,47,1012.73
2009,09,19,10,48,1012.73
2009,09,19,10,49,1012.73
2009,09,19,10,50,1012.73
2009,09,19,10,51,1012.73
2009,09,19,10,52,1012.73
2009,09,19,10,53,1012.73
2009,09,19,10,54,1012.73
2009,09,19,10,55,1012.73
2009,09,19,10,56,1012.73
2009,09,19,10,57,1012.73
2009,09,19,10,58,1012.73
2009,09,19,10,59,1012.73
2009,09,19,11,00,1012.94
2009,09,19,11,01,1012.94
2009,09,19,11,02,1012.94
2009,09,19,11,03,1012.94
2009,09,19,11,04,1012.94
2009,09,19,11,05,1012.94
2009,09,19,11,06,1012.94
2009,09,19,11,07,1012.94
2009,09,19,11,08,1012.94
2009,09,19,11,09,1012.94
2009,09,19,11,10,1012.94
2009,09,19,11,11,1012.94
2009,09,19,11,12,1012.94
2009,09,19,11,13,1012.94
2009,09,19,11,14,1012.94
2009,09,19,11,15,1013.26
2009,09,19,11,16,1013.28
2009,09,19,11,17,1013.28
2009,09,19,11,18,1013.28
2009,09,19,11,19,1013.28
2009,09,19,11,20,1013.28
2009,09,19,11,21,1013.28
2009,09,19,11,22,1013.28
2009,09,19,11,23,1013.28
2009,09,19,11,24,1013.28
2009,09,19,11,25,1013.28
2009,09,19,11,26,1013.28
2009,09,19,11,27,1013.28
2009,09,19,11,28,1013.28
2009,09,19,11,29,1013.28
2009,09,19,11,30,1013.31
2009,09,19,11,31,1013.31
2009,09,19,11,32,1013.31
2009,09,19,11,33,1013.31
2009,09,19,11,34,1013.31
2009,09,19,11,35,1013.31
2009,09,19,11,36,1013.31
2009,09,19,11,37,1013.31
2009,09,19,11,38,1013.31
2009,09,19,11,39,1013.31
2009,09,19,11,40,1013.31
2009,09,19,11,41,1013.31
2009,09,19,11,42,1013.31
2009,09,19,11,43,1013.31
2009,09,19,11,44,1013.31
2009,09,19,11,45,1013.38
2009,09,19,11,46,1013.38
2009,09,19,11,47,1013.38
2009,09,19,11,48,1013.38
2009,09,19,11,49,1013.38
2009,09,19,11,50,1013.38
2009,09,19,11,51,1013.38
2009,09,19,11,52,1013.38
2009,09,19,11,53,1013.38
2009,09,19,11,54,1013.38
2009,09,19,11,55,1013.38
2009,09,19,11,56,1013.38
2009,09,19,11,57,1013.38
2009,09,19,11,58,1013.38
2009,09,19,11,59,1013.38
2009,09,19,12,00,1013.54
2009,09,19,12,01,1013.55
2009,09,19,12,02,1013.55
2009,09,19,12,03,1013.55
2009,09,19,12,04,1013.55
2009,09,19,12,05,1013.55
2009,09,19,12,06,1013.55
2009,09,19,12,07,1013.55
2009,09,19,12,08,1013.55
2009,09,19,12,09,1013.55
2009,09,19,12,10,1013.55
2009,09,19,12,11,1013.55
2009,09,19,12,12,1013.55
2009,09,19,12,13,1013.55
2009,09,19,12,14,1013.55
2009,09,19,12,15,1013.75
2009,09,19,12,16,1013.75
2009,09,19,12,17,1013.75
2009,09,19,12,18,1013.75
2009,09,19,12,19,1013.75
2009,09,19,12,20,1013.75
2009,09,19,12,21,1013.75
2009,09,19,12,22,1013.75
2009,09,19,12,23,1013.75
2009,09,19,12,24,1013.75
2009,09,19,12,25,1013.75
2009,09,19,12,26,1013.75
2009,09,19,12,27,1013.75
2009,09,19,12,28,1013.75
2009,09,19,12,29,1013.75
2009,09,19,12,30,1013.82
2009,09,19,12,31,1013.82
2009,09,19,12,32,1013.82
2009,09,19,12,33,1013.82
2009,09,19,12,34,1013.82
2009,09,19,12,35,1013.82
2009,09,19,12,36,1013.82
2009,09,19,12,37,1013.82
2009,09,19,12,38,1013.82
2009,09,19,12,39,1013.82
2009,09,19,12,40,1013.82
2009,09,19,12,41,1013.82
2009,09,19,12,42,1013.82
2009,09,19,12,43,1013.82
2009,09,19,12,44,1013.82
2009,09,19,12,45,1014.20
2009,09,19,12,46,1014.22
2009,09,19,12,47,1014.22
2009,09,19,12,48,1014.22
2009,09,19,12,49,1014.22
2009,09,19,12,50,1014.22
2009,09,19,12,51,1014.22
2009,09,19,12,52,1014.22
2009,09,19,12,53,1014.22
2009,09,19,12,54,1014.22
2009,09,19,12,55,1014.22
2009,09,19,12,56,1014.22
2009,09,19,12,57,1014.22
2009,09,19,12,58,1014.22
2009,09,19,12,59,1014.22
2009,09,19,13,00,1014.29
2009,09,19,13,01,1014.29
2009,09,19,13,02,1014.29
2009,09,19,13,03,1014.29
2009,09,19,13,04,1014.29
2009,09,19,13,05,1014.29
2009,09,19,13,06,1014.29
2009,09,19,13,07,1014.29
2009,09,19,13,08,1014.29
2009,09,19,13,09,1014.29
2009,09,19,13,10,1014.29
2009,09,19,13,11,1014.29
2009,09,19,13,12,1014.29
2009,09,19,13,13,1014.29
2009,09,19,13,14,1014.29
2009,09,19,13,15,1014.33
2009,09,19,13,16,1014.33
2009,09,19,13,17,1014.33
2009,09,19,13,18,1014.33
2009,09,19,13,19,1014.33
2009,09,19,13,20,1014.33
2009,09,19,13,21,1014.33
2009,09,19,13,22,1014.33
2009,09,19,13,23,1014.33
2009,09,19,13,24,1014.33
2009,09,19,13,25,1014.33
2009,09,19,13,26,1014.33
2009,09,19,13,27,1014.33
2009,09,19,13,28,1014.33
2009,09,19,13,29,1014.33
2009,09,19,13,30,1014.56
2009,09,19,13,31,1014.56
2009,09,19,13,32,1014.56
2009,09,19,13,33,1014.56
2009,09,19,13,34,1014.56
2009,09,19,13,35,1014.56
2009,09,19,13,36,1014.56
2009,09,19,13,37,1014.56
2009,09,19,13,38,1014.56
2009,09,19,13,39,1014.56
2009,09,19,13,40,1014.56
2009,09,19,13,41,1014.56
2009,09,19,13,42,1014.56
2009,09,19,13,43,1014.56
2009,09,19,13,44,1014.56
2009,09,19,13,45,1014.73
2009,09,19,13,46,1014.73
2009,09,19,13,47,1014.73
2009,09,19,13,48,1014.73
2009,09,19,13,49,1014.73
2009,09,19,13,50,1014.73
2009,09,19,13,51,1014.73
2009,09,19,13,52,1014.73
2009,09,19,13,53,1014.73
2009,09,19,13,54,1014.73
2009,09,19,13,55,1014.73
2009,09,19,13,56,1014.73
2009,09,19,13,57,1014.73
2009,09,19,13,58,1014.73
2009,09,19,13,59,1014.73
2009,09,19,14,00,1014.80
2009,09,19,14,01,1014.80
2009,09,19,14,02,1014.80
2009,09,19,14,03,1014.80
2009,09,19,14,04,1014.80
2009,09,19,14,05,1014.80
2009,09,19,14,06,1014.80
2009,09,19,14,07,1014.80
2009,09,19,14,08,1014.80
2009,09,19,14,09,1014.80
2009,09,19,14,10,1014.80
2009,09,19,14,11,1014.80
2009,09,19,14,12,1014.80
2009,09,19,14,13,1014.80
2009,09,19,14,14,1014.80
2009,09,19,14,15,1014.77
2009,09,19,14,16,1014.77
2009,09,19,14,17,1014.77
2009,09,19,14,18,1014.77
2009,09,19,14,19,1014.77
2009,09,19,14,20,1014.77
2009,09,19,14,21,1014.77
2009,09,19,14,22,1014.77
2009,09,19,14,23,1014.77
2009,09,19,14,24,1014.77
2009,09,19,14,25,1014.77
2009,09,19,14,26,1014.77
2009,09,19,14,27,1014.77
2009,09,19,14,28,1014.77
2009,09,19,14,29,1014.77
2009,09,19,14,30,1014.80
2009,09,19,14,31,1014.80
2009,09,19,14,32,1014.80
2009,09,19,14,33,1014.80
2009,09,19,14,34,1014.80
2009,09,19,14,35,1014.80
2009,09,19,14,36,1014.80
2009,09,19,14,37,1014.80
2009,09,19,14,38,1014.80
2009,09,19,14,39,1014.80
2009,09,19,14,40,1014.80
2009,09,19,14,41,1014.80
2009,09,19,14,42,1014.80
2009,09,19,14,43,1014.80
2009,09,19,14,44,1014.80
2009,09,19,14,45,1014.80
2009,09,19,14,46,1014.80
2009,09,19,14,47,1014.80
2009,09,19,14,48,1014.80
2009,09,19,14,49,1014.80
2009,09,19,14,50,1014.80
2009,09,19,14,51,1014.80
2009,09,19,14,52,1014.80
2009,09,19,14,53,1014.80
2009,09,19,14,54,1014.80
2009,09,19,14,55,1014.80
2009,09,19,14,56,1014.80
2009,09,19,14,57,1014.80
2009,09,19,14,58,1014.80
2009,09,19,14,59,1014.80
2009,09,19,15,00,1014.80
2009,09,19,15,01,1014.80
2009,09,19,15,02,1014.80
2009,09,19,15,03,1014.80
2009,09,19,15,04,1014.80
2009,09,19,15,05,1014.80
2009,09,19,15,06,1014.80
2009,09,19,15,07,1014.80
2009,09,19,15,08,1014.80
2009,09,19,15,09,1014.80
2009,09,19,15,10,1014.80
2009,09,19,15,11,1014.80
2009,09,19,15,12,1014.80
2009,09,19,15,13,1014.80
2009,09,19,15,14,1014.80
2009,09,19,15,15,1015.07
2009,09,19,15,16,1015.07
2009,09,19,15,17,1015.07
2009,09,19,15,18,1015.07
2009,09,19,15,19,1015.07
2009,09,19,15,20,1015.07
2009,09,19,15,21,1015.07
2009,09,19,15,22,1015.07
2009,09,19,15,23,1015.07
2009,09,19,15,24,1015.07
2009,09,19,15,25,1015.07
2009,09,19,15,26,1015.07
2009,09,19,15,27,1015.07
2009,09,19,15,28,1015.07
2009,09,19,15,29,1015.07
2009,09,19,15,30,1015.34
2009,09,19,15,31,1015.34
2009,09,19,15,32,1015.34
2009,09,19,15,33,1015.34
2009,09,19,15,34,1015.34
2009,09,19,15,35,1015.34
2009,09,19,15,36,1015.34
2009,09,19,15,37,1015.34
2009,09,19,15,38,1015.34
2009,09,19,15,39,1015.34
2009,09,19,15,40,1015.34
2009,09,19,15,41,1015.34
2009,09,19,15,42,1015.34
2009,09,19,15,43,1015.34
2009,09,19,15,44,1015.34
2009,09,19,15,45,1015.53
2009,09,19,15,46,1015.54
2009,09,19,15,47,1015.54
2009,09,19,15,48,1015.54
2009,09,19,15,49,1015.54
2009,09,19,15,50,1015.54
2009,09,19,15,51,1015.54
2009,09,19,15,52,1015.54
2009,09,19,15,53,1015.54
2009,09,19,15,54,1015.54
2009,09,19,15,55,1015.54
2009,09,19,15,56,1015.54